{"data":{"norad_id":50493,"intl_designator":"2021-132AA","name":"ONEWEB-0418","alt_names":[],"object_type":"PAYLOAD","status":"ACTIVE","operator":null,"country":"UK","launch_date":"2021-12-27","launch_site_code":"TYMSC","launch_vehicle":null,"mission":null,"orbit_class":"UNKNOWN","rcs_meters":null,"size_class":null,"mass_kg":null,"dimensions":null,"purposes":["comms"],"wikipedia_slug":null,"has_3d_model":false,"image_url":null,"decayed_at":null,"tle_current":{"epoch":"2026-09-19T23:00:38.947968Z","epoch_age_seconds":72647,"freshness":"FRESH","line1":"1 50493U 21132AA  26262.95878412 -.00000071  00000+0 -21308-3 0  9998","line2":"2 50493  87.9161 316.6263 0002050 109.2901 250.8453 13.18686957234157","mean_motion":13.18686957,"eccentricity":0.000205,"inclination_deg":87.9161,"raan_deg":316.6263,"arg_perigee_deg":109.2901,"mean_anomaly_deg":250.8453,"bstar":-0.00021308,"rev_number":23415,"period_min":109.19953309283,"perigee_km":1188.1880507402,"apogee_km":1191.2908800911,"semimajor_km":7567.8764654157,"source":"CELESTRAK","updated_at":"2026-09-20T09:00:44.704926Z"}}}